Tiempo cada hora Muraveinya

Hoy, 26 Octubre, Lunes

Tiempo Temperatura Precipitaciones Viento Presión Humedad
00:00 +9°C° 0 mm 1 mps 748 mmHg 89%
01:00 +9°C° 0 mm 1 mps 748 mmHg 89%
02:00 +8°C° 0 mm 0 mps 748 mmHg 89%
03:00 +7°C° 0 mm 0 mps 748 mmHg 89%
04:00 +8°C° 0 mm 1 mps 748 mmHg 90%
05:00 +8°C° 0 mm 1 mps 748 mmHg 90%
06:00 +8°C° 0 mm 1 mps 748 mmHg 89%
07:00 +9°C° 0 mm 1 mps 749 mmHg 87%
08:00 +9°C° 0 mm 1 mps 749 mmHg 86%
09:00 +10°C° 0 mm 1 mps 749 mmHg 81%
10:00 +10°C° 0 mm 2 mps 749 mmHg 76%
11:00 +13°C° 0 mm 2 mps 749 mmHg 71%
12:00 +13°C° 0 mm 2 mps 749 mmHg 71%
13:00 +13°C° 0 mm 2 mps 749 mmHg 71%
14:00 +14°C° 0 mm 2 mps 749 mmHg 70%
15:00 +13°C° 0 mm 2 mps 749 mmHg 75%
16:00 +12°C° 0 mm 2 mps 748 mmHg 80%
17:00 +10°C° 0 mm 2 mps 748 mmHg 85%
18:00 +9°C° 0 mm 2 mps 748 mmHg 86%
19:00 +9°C° 0 mm 3 mps 749 mmHg 88%
20:00 +9°C° 0 mm 3 mps 749 mmHg 89%
21:00 +9°C° 0 mm 3 mps 749 mmHg 89%
22:00 +9°C° 0 mm 3 mps 749 mmHg 88%
23:00 +8°C° 0 mm 4 mps 749 mmHg 88%

Mañana, 27 Octubre, Martes

Tiempo Temperatura Precipitaciones Viento Presión Humedad
00:00 +7°C° 0 mm 4 mps 749 mmHg 89%
01:00 +7°C° 0 mm 4 mps 749 mmHg 90%
02:00 +7°C° 0 mm 4 mps 749 mmHg 91%
03:00 +7°C° 0 mm 3 mps 749 mmHg 91%
04:00 +7°C° 0 mm 3 mps 749 mmHg 90%
05:00 +7°C° 0 mm 3 mps 749 mmHg 90%
06:00 +6°C° 0 mm 4 mps 749 mmHg 87%
07:00 +7°C° 0 mm 4 mps 750 mmHg 84%
08:00 +7°C° 0 mm 4 mps 750 mmHg 81%
09:00 +8°C° 0 mm 4 mps 750 mmHg 75%
10:00 +10°C° 0 mm 5 mps 750 mmHg 69%
11:00 +12°C° 0 mm 5 mps 750 mmHg 63%
12:00 +12°C° 0 mm 5 mps 750 mmHg 61%
13:00 +13°C° 0 mm 5 mps 750 mmHg 59%
14:00 +13°C° 0 mm 5 mps 750 mmHg 57%
15:00 +12°C° 0 mm 4 mps 750 mmHg 61%
16:00 +11°C° 0 mm 4 mps 750 mmHg 66%
17:00 +8°C° 0 mm 4 mps 750 mmHg 70%
18:00 +8°C° 0 mm 4 mps 750 mmHg 71%
19:00 +7°C° 0 mm 4 mps 750 mmHg 72%
20:00 +7°C° 0 mm 5 mps 750 mmHg 73%
21:00 +7°C° 0 mm 4 mps 750 mmHg 74%
22:00 +6°C° 0 mm 4 mps 750 mmHg 74%
23:00 +6°C° 0 mm 4 mps 750 mmHg 75%

Pasado mañana, 28 Octubre, Miércoles

Tiempo Temperatura Precipitaciones Viento Presión Humedad
00:00 +6°C° 0 mm 4 mps 750 mmHg 75%
01:00 +5°C° 0 mm 4 mps 750 mmHg 76%
02:00 +5°C° 0 mm 4 mps 750 mmHg 77%
03:00 +5°C° 0 mm 4 mps 750 mmHg 77%
04:00 +5°C° 0 mm 4 mps 750 mmHg 78%
05:00 +4°C° 0 mm 4 mps 750 mmHg 79%
06:00 +5°C° 0 mm 4 mps 750 mmHg 78%
07:00 +5°C° 0 mm 4 mps 750 mmHg 76%
08:00 +5°C° 0 mm 5 mps 750 mmHg 75%
09:00 +6°C° 0 mm 5 mps 750 mmHg 70%
10:00 +8°C° 0 mm 5 mps 750 mmHg 65%
11:00 +9°C° 0 mm 5 mps 751 mmHg 60%
12:00 +10°C° 0 mm 5 mps 750 mmHg 58%
13:00 +10°C° 0 mm 5 mps 750 mmHg 56%
14:00 +12°C° 0 mm 5 mps 750 mmHg 54%
15:00 +11°C° 0 mm 4 mps 750 mmHg 58%
16:00 +8°C° 0 mm 4 mps 750 mmHg 63%
17:00 +7°C° 0 mm 4 mps 750 mmHg 67%
18:00 +7°C° 0 mm 4 mps 750 mmHg 66%
19:00 +6°C° 0 mm 4 mps 750 mmHg 65%
20:00 +6°C° 0 mm 4 mps 750 mmHg 65%
21:00 +5°C° 0 mm 4 mps 750 mmHg 64%
22:00 +5°C° 0 mm 4 mps 750 mmHg 63%
23:00 +4°C° 0 mm 4 mps 750 mmHg 61%

29 Octubre, Jueves

Tiempo Temperatura Precipitaciones Viento Presión Humedad
00:00 +4°C° 0 mm 3 mps 749 mmHg 58%
01:00 +3°C° 0 mm 3 mps 749 mmHg 55%
02:00 +3°C° 0 mm 3 mps 749 mmHg 52%
03:00 +3°C° 0 mm 3 mps 749 mmHg 52%
04:00 +2°C° 0 mm 3 mps 749 mmHg 52%
05:00 +2°C° 0 mm 3 mps 749 mmHg 52%
06:00 +1°C° 0 mm 4 mps 749 mmHg 52%
07:00 +3°C° 0 mm 4 mps 749 mmHg 52%
08:00 +3°C° 0 mm 4 mps 749 mmHg 52%
09:00 +4°C° 0 mm 4 mps 749 mmHg 51%
10:00 +5°C° 0 mm 4 mps 749 mmHg 50%
11:00 +6°C° 0 mm 4 mps 749 mmHg 50%
12:00 +7°C° 0 mm 4 mps 748 mmHg 51%
13:00 +7°C° 0 mm 4 mps 748 mmHg 52%
14:00 +8°C° 0 mm 4 mps 748 mmHg 53%
15:00 +8°C° 0 mm 3 mps 748 mmHg 57%
16:00 +7°C° 0 mm 3 mps 748 mmHg 62%
17:00 +6°C° 0 mm 2 mps 748 mmHg 67%
18:00 +6°C° 0 mm 2 mps 748 mmHg 70%
19:00 +5°C° 0 mm 2 mps 748 mmHg 73%
20:00 +5°C° 0 mm 2 mps 748 mmHg 76%
21:00 +5°C° 0 mm 2 mps 748 mmHg 78%
22:00 +4°C° 0 mm 2 mps 748 mmHg 80%
23:00 +4°C° 0 mm 2 mps 747 mmHg 83%

30 Octubre, Viernes

Tiempo Temperatura Precipitaciones Viento Presión Humedad
00:00 +5°C° 0 mm 1 mps 747 mmHg 84%
01:00 +5°C° 0 mm 1 mps 747 mmHg 86%
02:00 +4°C° 0 mm 0 mps 747 mmHg 87%
03:00 +4°C° 0 mm 0 mps 747 mmHg 87%
04:00 +3°C° 0 mm 0 mps 747 mmHg 87%
05:00 +3°C° 0 mm 0 mps 747 mmHg 87%
06:00 +4°C° 0 mm 0 mps 747 mmHg 85%
07:00 +4°C° 0 mm 0 mps 748 mmHg 83%
08:00 +5°C° 0 mm 0 mps 748 mmHg 82%
09:00 +7°C° 0 mm 1 mps 748 mmHg 75%
10:00 +9°C° 0 mm 1 mps 748 mmHg 69%
11:00 +10°C° 0 mm 1 mps 748 mmHg 63%
12:00 +11°C° 0 mm 1 mps 748 mmHg 61%
13:00 +11°C° 0 mm 1 mps 748 mmHg 60%
14:00 +12°C° 0 mm 1 mps 748 mmHg 59%
15:00 +9°C° 0 mm 2 mps 748 mmHg 65%
16:00 +8°C° 0 mm 2 mps 748 mmHg 71%
17:00 +7°C° 0 mm 2 mps 748 mmHg 77%
18:00 +8°C° 0 mm 1 mps 748 mmHg 80%
19:00 +7°C° 0 mm 1 mps 748 mmHg 83%
20:00 +7°C° 0 mm 1 mps 748 mmHg 85%
21:00 +7°C° 0 mm 1 mps 748 mmHg 87%
22:00 +6°C° 0 mm 1 mps 749 mmHg 89%
23:00 +6°C° 0 mm 1 mps 749 mmHg 91%

31 Octubre, Sábado

Tiempo Temperatura Precipitaciones Viento Presión Humedad
00:00 +6°C° 0 mm 1 mps 749 mmHg 91%
01:00 +6°C° 0 mm 1 mps 749 mmHg 92%
02:00 +6°C° 0 mm 1 mps 749 mmHg 92%
03:00 +6°C° 0 mm 1 mps 749 mmHg 93%
04:00 +6°C° 0 mm 1 mps 749 mmHg 93%
05:00 +6°C° 0 mm 1 mps 749 mmHg 93%
06:00 +6°C° 0 mm 1 mps 749 mmHg 93%
07:00 +6°C° 0 mm 2 mps 749 mmHg 94%
08:00 +6°C° 0 mm 2 mps 749 mmHg 94%
Mostrar más

Necesitamos Su Consentimiento

Meteoprog y nuestros Proveedores de Servicios pueden almacenar y acceder a sus datos personales como cookies, identificadores de dispositivo u otras tecnologías similares de su dispositivo y procesar dichos datos para personalizar contenido y anuncios, además de ofrecer funciones de redes sociales y analizar el tráfico.

  • Almacenar y/o acceder a información en su dispositivo

    Se puede almacenar o acceder a cookies, identificadores de dispositivo u otra información de su dispositivo para los fines anteriormente indicados.

  • Anuncios y contenido personalizados, medición de anuncios y contenido, percepciones del público, y desarrollo de productos

    Los anuncios y el contenido pueden personalizarse en base a su perfil. Se pueden añadir más datos para personalizar mejor los anuncios y contenidos. Se puede medir el rendimiento de los anuncios y contenidos. Se puede obtener la percepción sobre el público que ha visto los anuncios y contenidos. Dichos datos pueden usarse para desarrollar o mejorar la experiencia del usuario, sistemas y software.

Al hacer clic en ‘Estoy De Acuerdo’ usted permitirá el uso de las cookies, identificadores de dispositivo, balizas web u otras tecnologías similares indicadas. Su configuración puede cambiarse desde el navegador de su dispositivo.

Para ciertos fines, los intereses legítimos pueden ser considerados por encima del consentimiento. Puede leer más sobre ello en nuestra Política de Privacidad y Cookies.